Dewpoint
69 65 66 68 69 68 66 66 58 60 59 53 56 56 55 58 60 60 60 62 61 61 62 57 57 57 58 56 57 61 60 59 60 56 56 67 70 70 71 71 71 71 71 72 72 75 76 76 77 76 76 76 76 76 76 76 76 76 76 76 76 76 76 76 75 76 76 76 76 75 75 75 75 75 75 75 74 74 74 74 74 74 73 74 74 74 74 74 74 75 75 75 74 75 75 75 75
67 66 66 68 69 67 63 66 61 56 56 55 53 54 59 61 62 58 58 62 61 62 58 57 57 58 60 57 58 57 59 60 60 61 64 67 68 70 69 70 69 69 70 72 71 72 72 77 77 76 76 76 76 76 77 76 76 76 76 75 75 75 76 76 76 76 76 75 75 75 75 75 75 75 75 75 75 74 74 74 74 74 74 73 74 73 74 73 74 76 75 75 75 75 75 75 75
66 66 65 68 68 69 67 65 57 53 51 53 53 56 60 58 59 60 62 62 60 59 58 57 58 61 59 57 56 58 58 61 61 62 65 68 68 70 69 69 69 70 70 70 70 71 73 75 76 77 76 76 76 77 77 76 76 75 76 75 75 75 75 75 76 75 75 75 75 75 75 75 75 75 74 74 74 75 74 75 75 74 74 74 74 74 74 73 74 74 76 74 75 75 75 75 74
66 66 65 66 63 66 63 62 59 56 50 50 51 58 59 58 59 62 64 62 59 57 58 59 60 61 57 55 58 60 60 60 61 62 65 66 67 69 69 69 71 69 69 70 69 70 73 76 77 77 76 76 76 76 76 76 75 76 76 76 76 76 76 76 76 75 75 75 75 75 75 75 75 75 75 75 75 75 75 75 75 75 75 75 75 74 74 73 74 74 75 75 74 74 74 75 74
67 72 67 65 65 62 61 59 58 56 51 51 56 57 58 58 62 61 61 61 57 58 58 59 58 62 59 59 59 57 59 60 61 63 62 65 67 69 69 70 69 69 70 69 69 70 73 77 77 77 76 76 76 76 76 76 76 76 76 76 76 76 76 76 76 75 75 75 75 75 75 75 75 75 75 75 75 75 75 75 76 75 75 75 76 75 74 74 74 74 75 74 74 75 75 74 73
66 68 71 70 64 67 64 59 56 53 54 55 53 57 60 61 63 62 62 61 59 58 59 59 58 59 58 61 61 60 61 60 60 62 63 66 67 68 69 70 69 69 69 69 70 71 73 77 77 76 76 76 76 76 76 76 76 76 76 76 75 75 75 76 76 76 75 75 76 75 75 75 75 75 75 75 75 75 75 75 75 75 75 75 76 75 74 73 74 75 75 75 75 75 74 74 73
65 67 66 67 65 65 60 55 52 52 56 56 56 58 61 61 63 64 61 60 59 58 59 59 60 59 58 60 61 63 65 61 60 60 63 66 67 68 68 68 69 69 69 69 70 71 74 77 76 76 76 76 76 76 76 76 75 76 75 76 75 76 75 75 75 76 76 75 75 76 75 75 75 75 75 76 75 75 75 75 75 75 75 74 76 75 74 74 74 74 75 75 75 75 75 74 74
65 67 63 62 60 63 57 54 53 54 54 61 58 60 61 61 63 64 60 60 58 57 57 59 60 59 60 61 60 64 63 61 61 62 64 67 67 68 68 68 68 68 68 69 71 72 77 77 76 76 76 76 76 76 76 76 76 76 76 75 75 75 76 76 76 75 76 76 76 75 76 76 75 75 75 75 75 75 75 75 75 74 74 75 76 75 74 74 74 74 75 75 75 75 74 75 75
64 67 65 64 60 59 55 53 54 56 55 57 59 63 63 61 61 61 59 59 59 58 57 57 59 58 62 62 63 65 62 61 62 65 64 66 67 67 66 67 67 67 67 68 70 73 74 76 76 76 76 76 76 76 76 76 75 75 75 75 76 75 76 75 75 76 76 75 75 75 75 75 75 75 75 75 75 75 75 75 75 75 75 75 75 75 75 74 74 74 75 75 75 75 75 75 75
65 66 62 61 57 54 51 51 52 55 58 61 61 62 63 61 61 61 59 58 59 58 58 57 58 60 62 61 63 64 62 62 63 64 64 65 67 67 66 67 67 66 66 68 69 70 73 77 76 76 76 76 76 76 76 75 76 76 75 76 75 76 76 75 75 75 75 75 75 75 75 75 75 75 75 76 75 75 75 75 76 75 75 75 75 75 74 74 74 74 74 75 75 75 75 75 75
64 65 65 60 56 52 51 51 53 52 57 61 62 61 63 61 60 61 58 58 59 58 58 59 59 60 61 63 64 65 63 63 63 63 65 66 67 67 65 69 67 65 65 67 68 71 73 75 76 76 76 76 76 76 76 76 75 75 76 76 75 75 75 76 75 75 75 75 75 75 74 75 74 75 75 75 75 74 74 75 75 75 75 75 74 75 74 74 74 74 75 75 75 75 75 74 75
64 63 63 57 54 54 51 52 52 55 57 61 61 61 61 60 60 58 58 58 58 59 58 59 59 61 60 62 63 64 63 63 63 64 65 66 66 66 66 67 67 65 65 66 69 70 72 75 76 76 76 76 76 76 76 75 75 75 76 76 75 75 75 75 75 75 75 75 75 74 74 75 75 75 75 74 74 74 74 75 75 74 74 74 75 75 75 74 74 74 74 75 75 75 76 75 75
64 65 61 55 53 54 53 53 54 54 56 57 58 60 60 60 58 58 58 58 59 58 58 60 61 61 59 62 64 64 62 63 63 64 66 65 66 66 67 67 66 65 64 67 69 70 72 73 74 75 75 77 76 76 76 76 76 75 76 76 76 75 75 75 75 75 75 75 75 75 75 75 75 75 75 74 74 74 76 76 75 75 75 74 74 74 74 75 74 74 74 74 75 75 75 75 74
64 64 62 56 54 52 53 51 52 53 53 57 60 60 60 59 58 58 58 58 58 57 60 62 61 61 63 62 64 62 60 63 64 64 65 66 67 67 67 66 66 65 65 67 70 70 71 71 71 72 75 77 77 76 76 76 76 75 76 75 75 75 76 76 75 75 75 75 75 75 75 75 75 75 75 75 75 76 76 76 75 75 75 74 75 75 74 75 75 75 75 75 76 76 75 75 75
65 65 61 58 55 53 51 53 50 51 53 57 61 62 62 62 63 61 61 59 59 61 61 62 61 60 59 60 61 60 60 63 64 65 65 66 67 67 68 67 66 66 64 65 68 69 70 71 70 73 75 75 77 77 77 75 75 76 75 75 75 75 76 75 75 74 75 75 75 75 75 75 75 75 75 75 75 75 75 75 75 75 75 76 76 76 75 75 74 75 75 75 74 74 75 75 75
65 62 59 57 53 53 49 51 49 50 54 58 60 60 63 62 61 61 61 63 61 61 60 59 61 58 60 59 60 60 60 63 64 64 64 66 67 68 68 68 66 66 66 67 68 70 70 70 71 71 73 73 74 75 75 75 76 75 75 75 75 75 75 75 75 75 75 75 75 75 75 76 75 75 75 75 75 75 74 75 75 75 75 75 76 75 75 74 75 75 75 74 75 75 74 73 73
64 62 58 55 52 51 49 50 50 51 53 58 62 60 59 59 60 61 62 64 59 58 59 59 59 60 59 60 61 60 61 63 64 63 64 66 67 66 67 67 67 66 65 67 68 68 70 71 71 71 73 74 73 74 76 75 75 75 75 75 75 75 75 75 75 75 75 76 76 76 75 77 77 77 75 74 74 75 75 75 75 75 74 74 74 74 74 74 75 74 74 75 74 74 74 74 74
62 59 56 54 53 51 51 53 50 50 54 58 59 59 61 58 60 61 61 60 59 59 59 59 60 60 61 62 61 61 62 63 63 62 63 64 66 65 65 66 65 65 65 66 68 68 69 71 71 71 73 74 73 73 73 74 75 75 75 76 76 76 75 75 75 75 74 76 75 76 77 76 76 77 75 72 74 76 75 75 75 75 74 74 74 74 73 74 74 74 74 74 74 74 75 74 74
58 56 55 54 53 53 54 53 54 53 53 58 58 59 58 58 59 60 58 58 59 59 59 60 60 61 61 62 62 61 61 62 62 61 62 62 63 64 64 66 65 64 64 66 68 68 69 71 71 70 72 74 73 73 72 73 74 75 75 75 74 75 75 75 75 75 75 76 76 76 74 74 74 75 75 74 75 75 75 75 75 75 75 75 74 75 74 74 74 73 74 74 74 74 76 72 75
58 56 55 53 56 53 55 55 54 54 53 55 58 58 58 58 59 60 58 58 58 58 58 59 60 60 60 61 62 61 62 62 62 61 61 62 62 63 64 64 65 64 64 64 67 68 69 69 71 70 72 73 73 72 72 73 73 74 74 73 74 74 75 75 74 75 75 75 74 74 72 74 73 74 74 74 74 74 75 76 75 75 75 75 75 74 75 75 75 75 74 74 73 73 73 69 72
57 56 54 57 55 54 55 54 54 55 55 55 56 58 57 58 59 58 58 57 57 58 58 59 59 59 60 61 61 61 61 62 61 61 60 61 62 60 62 63 64 65 64 65 67 68 68 69 70 71 72 73 72 72 72 72 73 72 72 72 73 72 74 73 73 74 74 74 74 73 70 71 71 73 74 74 73 75 74 75 75 75 75 75 75 74 74 74 74 74 75 75 74 73 71 70 70
56 54 54 56 54 54 56 55 56 54 54 56 56 57 57 59 58 57 57 58 56 56 59 59 60 61 61 60 61 60 61 61 60 61 60 61 60 61 62 62 64 64 65 66 66 68 68 69 69 70 71 72 72 72 73 73 73 72 73 72 72 73 73 73 73 73 73 73 71 69 69 71 72 73 74 74 74 75 73 71 72 73 74 75 75 73 72 74 73 73 73 73 71 71 71 72 72
52 54 55 56 56 56 58 55 56 54 52 54 55 57 57 57 57 58 58 59 58 58 59 59 61 61 61 61 61 60 60 61 60 61 61 61 61 61 62 62 63 63 65 66 67 68 68 68 70 69 70 72 72 72 73 73 72 72 72 73 72 72 72 73 70 71 72 72 72 70 67 68 70 71 73 74 74 74 73 72 72 73 74 73 74 74 74 73 72 72 73 74 73 70 71 74 74
52 49 53 54 55 55 58 56 56 53 51 51 54 56 56 56 55 57 57 57 58 59 59 61 62 62 62 61 61 60 61 60 60 60 61 60 61 61 62 62 63 63 66 66 66 67 69 67 70 70 70 72 72 72 72 72 73 72 72 73 71 71 71 69 68 70 73 72 73 72 72 70 69 70 73 73 73 74 73 74 74 72 72 72 73 73 73 76 77 73 75 75 74 74 70 72 70
50 48 51 53 54 54 55 55 53 53 51 51 53 54 54 56 55 57 57 56 59 59 61 61 62 62 61 61 61 61 61 61 60 59 61 62 62 62 63 63 64 64 64 66 66 66 68 68 70 69 70 72 71 71 71 71 72 72 72 71 72 73 71 68 70 73 71 70 72 74 74 70 71 71 73 73 74 74 74 74 72 72 73 73 73 71 73 74 74 73 73 74 74 74 72 72 71
48 48 49 51 50 52 52 52 52 51 50 50 52 52 53 54 55 55 56 57 60 61 61 61 62 61 61 61 62 62 62 61 60 59 60 62 62 62 62 62 62 64 65 66 66 67 67 68 69 68 69 70 70 69 71 70 71 71 71 72 72 73 71 72 73 69 72 70 70 73 73 73 71 71 72 73 73 74 75 74 73 72 72 73 71 73 74 74 77 74 73 73 72 74 71 73 72
46 47 47 48 49 50 51 51 51 51 51 49 50 51 51 54 54 52 55 58 61 61 61 62 62 61 61 60 61 62 62 61 60 60 60 62 62 61 62 63 62 63 65 65 65 66 68 68 68 70 70 72 70 68 70 71 72 71 72 72 72 72 73 74 72 71 71 71 73 75 75 75 73 71 73 74 74 74 74 74 73 73 72 71 73 75 75 76 74 73 74 72 74 74 73 73 72
40 45 44 44 45 46 48 50 50 51 49 49 49 49 50 53 54 52 54 58 61 60 61 61 62 62 62 61 61 63 62 62 62 61 60 61 62 61 62 63 63 63 64 64 66 68 66 67 67 69 70 72 72 70 72 71 72 72 73 71 71 72 74 72 71 72 73 72 74 74 75 74 75 75 76 76 75 74 73 72 72 72 71 72 75 76 76 75 73 74 76 77 77 75 74 74 74
35 38 36 38 42 42 45 47 49 49 47 48 49 47 47 51 52 52 55 59 60 60 61 61 61 62 62 62 61 63 62 63 62 61 61 61 62 62 61 63 62 63 64 65 66 67 66 67 67 70 70 72 72 71 71 71 72 72 72 72 72 72 73 73 72 72 73 74 75 75 75 76 76 76 76 77 75 74 73 74 72 73 73 73 76 76 76 76 74 74 75 75 74 74 73 73 74
29 29 31 32 35 40 44 46 47 47 47 47 48 46 44 51 52 52 56 59 59 59 61 61 61 62 62 62 62 63 63 63 63 63 63 63 62 61 61 61 61 62 64 66 66 66 66 66 67 68 69 71 73 70 72 71 72 72 72 71 73 73 72 72 72 73 73 73 74 75 74 75 75 76 77 78 75 73 74 73 73 72 74 75 76 77 75 75 74 74 74 74 73 74 72 73 71
23 23 26 25 31 37 44 46 47 45 47 47 47 44 48 48 49 51 55 58 58 58 59 60 61 61 62 62 62 62 62 64 63 63 63 63 63 62 62 62 62 64 65 65 66 66 67 67 67 67 70 71 72 70 72 72 73 71 72 72 72 73 72 72 69 71 71 71 72 73 74 75 76 76 78 78 76 75 72 72 73 71 76 75 76 77 76 75 75 75 74 75 74 72 71 72 71
22 21 21 23 28 36 44 46 46 45 46 46 46 44 42 44 48 50 55 57 57 57 58 60 60 61 62 62 62 62 62 63 63 63 63 63 63 64 63 64 64 63 65 66 66 66 67 68 69 67 69 70 71 71 73 72 72 72 71 71 72 73 71 70 68 67 69 70 71 73 75 75 75 76 77 78 76 75 73 72 72 76 77 75 75 76 76 75 76 76 76 74 73 71 72 68 67
23 19 19 21 26 33 41 43 45 45 45 46 46 51 48 44 46 48 56 56 55 56 57 59 60 61 62 62 62 62 62 63 63 63 63 63 64 64 64 63 64 64 66 67 67 68 69 69 70 67 68 71 72 71 74 73 73 72 73 72 70 73 70 69 68 68 68 70 69 69 74 74 75 76 77 77 77 76 73 74 72 75 76 75 76 76 76 74 75 73 76 75 75 75 70 64 64
19 21 20 21 23 30 37 41 44 45 45 44 45 44 44 49 46 52 53 54 55 54 56 59 60 61 62 62 62 62 62 63 62 63 62 63 64 64 64 66 65 65 67 67 68 68 68 69 69 68 69 69 72 72 74 74 74 74 72 71 73 72 68 65 65 66 68 66 68 69 73 74 75 76 77 77 77 76 75 74 74 76 76 76 76 74 74 73 74 75 76 76 75 75 71 67 64
15 21 20 19 23 28 33 38 41 43 44 43 44 44 43 43 47 49 52 53 54 54 55 57 59 60 62 62 62 62 62 62 62 63 62 64 64 65 65 65 66 67 67 68 69 70 69 69 70 71 70 70 71 74 75 74 74 75 72 71 71 72 71 67 66 65 64 67 66 70 74 73 74 76 76 77 77 75 75 75 76 77 76 76 77 75 73 74 76 75 74 75 76 74 69 67 66
12 20 20 20 22 27 31 39 39 42 42 42 42 43 46 44 45 51 51 51 53 53 54 57 59 60 62 62 61 62 62 62 63 63 63 63 64 65 65 66 66 67 67 69 70 70 70 71 71 71 72 71 72 74 73 72 71 71 69 69 68 70 68 67 68 67 66 64 66 69 73 73 74 75 76 77 77 77 76 75 77 76 75 76 76 75 73 74 77 77 77 75 76 73 69 67 67
21 18 22 21 21 24 28 34 38 40 40 41 42 42 44 49 44 45 49 50 52 52 53 56 58 60 61 61 61 62 63 62 63 63 63 64 64 65 66 66 67 67 68 69 70 71 71 70 71 72 72 73 73 72 71 70 70 70 69 66 64 65 68 68 68 66 65 65 67 69 72 71 74 75 76 76 76 76 76 76 76 76 75 76 76 76 76 77 77 76 76 77 74 73 68 66 65
24 24 26 24 21 22 24 28 34 36 38 40 42 41 42 43 43 42 47 50 49 50 53 56 58 59 61 62 62 63 63 63 63 64 63 64 64 65 65 66 68 67 69 69 70 71 72 71 71 72 72 73 73 72 71 71 71 70 69 67 62 62 66 67 67 67 63 63 70 72 72 71 74 75 75 76 76 75 75 74 75 76 75 76 76 76 76 76 78 76 76 75 74 72 69 63 65
20 21 23 24 24 25 25 27 33 34 35 38 39 40 41 42 42 42 42 48 51 50 52 55 59 60 61 61 62 63 63 63 63 63 64 63 64 65 65 66 67 67 68 69 70 71 72 72 72 73 72 72 72 72 72 72 72 72 70 67 65 62 66 68 64 66 66 64 67 72 70 70 73 74 75 75 75 75 75 75 76 76 76 76 76 77 77 78 78 78 77 73 72 73 69 67 68
20 17 18 21 22 22 23 27 33 32 33 36 40 37 38 40 42 41 41 44 52 52 51 54 58 60 61 60 62 63 63 64 63 64 63 63 64 65 66 66 67 67 68 69 69 70 71 72 73 73 73 72 72 73 73 73 73 74 73 72 70 67 68 70 71 70 70 68 66 69 71 71 72 73 74 74 75 75 75 75 75 76 77 77 76 76 77 77 77 77 74 74 74 71 66 65 65
12 9 8 16 22 24 26 26 29 31 32 33 35 36 37 38 37 39 41 42 48 49 50 53 57 59 60 61 62 63 63 64 64 64 64 64 64 65 66 67 67 67 68 68 68 69 69 71 73 73 73 72 73 73 74 74 74 75 74 74 73 72 72 72 71 69 71 71 68 68 69 71 71 73 74 75 74 75 76 76 75 76 75 76 75 75 75 74 75 74 76 76 76 72 68 65 66
10 10 10 13 21 25 27 28 29 27 27 29 31 34 36 39 38 37 39 40 45 47 50 53 57 59 61 60 62 63 62 64 65 64 64 64 65 66 67 67 66 67 67 68 68 68 69 71 73 74 73 73 72 73 74 74 74 73 73 72 71 70 70 70 69 67 66 68 65 64 67 67 69 73 74 75 75 75 76 76 76 75 75 76 75 74 74 74 75 74 75 75 75 76 73 68 64
9 9 11 11 17 26 29 28 28 30 29 27 28 30 33 37 37 39 40 40 44 47 50 52 56 60 60 61 61 62 62 63 64 64 65 64 65 66 67 67 67 66 67 68 69 69 70 71 72 73 74 73 73 73 74 74 73 73 73 72 70 70 68 69 70 67 66 67 68 66 65 67 70 72 73 74 75 75 76 76 76 75 75 74 75 75 74 73 72 73 75 75 74 76 74 71 67
8 8 9 9 9 19 27 29 28 28 29 28 29 29 31 33 35 39 38 39 42 47 50 53 53 59 59 60 60 62 62 63 64 64 65 65 66 66 67 67 67 66 67 68 68 69 71 72 73 73 74 73 74 74 74 73 73 72 73 72 71 70 67 69 71 71 70 71 70 68 65 67 72 73 72 74 75 75 76 76 77 76 74 74 74 74 72 71 72 74 75 77 77 77 76 72 68
9 10 11 12 9 9 18 26 28 28 29 30 29 30 31 32 35 38 38 38 38 45 49 52 52 57 59 60 59 61 62 63 64 64 64 65 66 66 67 68 67 67 67 68 69 69 71 72 74 74 74 74 74 74 74 73 73 72 72 73 72 71 70 69 71 72 71 72 72 71 69 68 71 74 74 73 75 75 75 76 76 76 74 74 75 73 72 70 72 73 75 75 76 77 76 73 73
14 12 24 20 16 10 7 14 24 29 32 31 32 29 30 31 31 32 36 38 40 43 43 47 51 53 58 59 60 60 62 64 63 64 65 65 65 66 66 67 68 67 67 69 69 70 71 72 73 74 74 74 74 74 73 73 73 72 73 73 73 72 72 71 71 72 72 73 73 73 71 70 69 72 74 75 75 75 75 76 75 75 75 72 73 72 72 72 73 74 74 74 75 76 76 74 73
17 14 18 20 17 14 10 11 22 29 29 31 29 28 28 27 30 30 32 35 38 37 42 44 49 52 55 59 59 59 61 63 63 64 65 66 66 66 66 67 68 67 68 69 68 69 70 72 73 74 75 74 75 74 73 73 73 72 73 72 73 73 73 72 72 73 73 74 73 73 72 73 70 69 71 73 74 74 75 75 74 74 74 74 75 74 74 72 70 72 73 74 75 75 74 74 73
18 14 16 19 20 20 20 16 22 24 25 30 29 28 29 28 30 30 33 35 35 35 36 43 44 50 55 58 56 58 60 62 63 64 64 65 67 67 67 67 68 68 68 69 69 70 71 72 73 75 75 75 75 74 74 73 72 72 73 73 73 74 74 73 73 72 73 74 73 72 72 73 73 71 73 71 72 72 74 74 75 74 75 74 74 74 74 73 72 71 72 74 74 74 75 75 74
19 17 21 17 19 25 19 21 19 20 21 25 25 27 28 29 33 32 30 30 34 37 34 37 42 47 53 55 58 58 59 61 63 64 65 65 66 66 67 68 69 70 69 70 69 69 71 72 74 74 75 75 75 74 73 73 73 72 72 72 72 74 74 74 73 73 73 73 73 72 73 73 73 73 73 72 72 73 73 75 75 74 75 76 76 76 75 75 75 72 74 73 74 74 74 75 73
19 19 21 18 19 23 22 19 21 20 20 20 23 25 24 27 29 33 31 32 33 35 38 36 41 45 49 53 57 56 58 60 62 63 64 65 67 67 68 68 69 69 69 69 70 70 71 72 74 74 75 76 75 74 73 73 73 73 73 72 73 73 74 74 74 72 72 73 73 73 72 71 72 72 72 73 72 72 73 74 76 76 76 76 76 76 76 76 76 75 74 74 73 74 74 75 75
20 19 17 19 21 22 23 19 18 16 19 20 19 20 25 23 27 27 31 32 34 34 34 40 40 40 45 49 54 55 58 60 62 63 63 64 65 67 67 68 69 69 69 69 70 71 72 72 73 74 75 75 75 74 73 72 72 72 72 72 73 73 73 73 73 73 73 73 72 73 73 70 70 71 71 73 75 74 74 75 75 75 76 76 77 77 75 76 76 76 75 75 74 74 75 74 74
21 20 19 18 18 21 20 21 18 18 17 14 17 17 23 25 32 31 32 30 32 32 33 35 37 38 40 42 48 51 54 57 59 61 62 64 66 67 67 67 68 69 70 69 70 71 71 72 73 74 75 75 74 75 73 72 73 72 73 73 72 73 74 73 74 74 74 74 74 74 74 74 71 71 74 74 74 75 75 75 75 75 76 75 76 77 76 75 76 75 75 75 76 74 75 76 74
22 21 19 18 20 17 21 24 20 22 22 21 21 22 22 22 22 27 28 28 29 30 29 28 31 33 40 38 41 49 52 56 59 60 61 64 65 66 66 67 67 68 69 69 71 71 72 72 72 74 75 75 74 74 73 73 73 73 73 72 72 73 72 72 72 74 72 74 75 74 73 73 73 73 73 74 74 76 76 75 74 73 74 75 75 76 75 76 76 75 74 75 75 74 75 76 74
22 22 22 21 21 21 23 17 22 20 18 21 17 18 22 22 20 22 24 24 24 27 28 26 32 34 35 35 38 46 50 53 58 61 63 63 64 66 66 66 66 67 68 69 71 71 72 72 72 73 74 74 74 74 73 73 73 73 73 73 73 73 72 71 72 73 74 74 74 75 73 73 72 71 71 71 74 74 76 76 75 75 74 74 75 74 75 75 76 74 75 75 74 75 75 75 76
24 22 23 21 21 21 24 24 20 18 18 18 15 13 12 18 23 22 19 18 18 24 27 27 26 30 34 35 39 46 47 50 56 59 61 62 63 64 66 65 65 67 69 69 70 70 71 71 72 72 73 73 73 72 73 74 74 73 73 73 73 73 72 72 73 74 75 74 72 73 72 72 72 73 74 74 75 74 75 76 77 75 75 75 75 74 75 76 76 75 74 73 74 75 74 74 75
25 26 24 23 24 24 24 25 27 25 19 19 18 13 16 19 17 16 21 22 20 16 21 23 23 27 30 35 40 45 47 49 53 57 60 61 62 63 64 64 65 66 67 68 68 69 69 70 71 71 72 73 74 73 74 74 73 73 72 73 73 73 74 73 73 73 73 73 73 72 73 70 72 72 73 74 74 74 74 73 74 73 71 72 73 73 73 76 76 75 73 72 72 74 73 74 74
23 24 25 25 23 23 25 24 23 22 23 22 23 17 20 23 20 15 20 25 26 21 22 26 26 27 25 33 39 42 47 49 52 56 59 60 61 61 63 64 64 65 67 67 67 68 68 69 70 70 71 71 72 72 72 74 74 74 74 73 72 73 73 73 73 73 74 74 74 73 72 72 73 72 73 73 74 74 74 74 73 73 71 72 74 73 74 75 76 76 75 75 74 74 74 73 74
21 23 24 23 23 22 22 24 22 21 21 23 22 22 28 20 19 18 19 22 21 26 28 27 28 26 32 34 38 42 46 52 54 54 56 58 61 62 62 64 64 64 65 65 66 66 67 68 68 69 69 70 70 71 73 74 74 73 73 73 73 72 73 73 73 73 73 73 73 74 74 74 72 73 73 72 74 74 74 73 73 74 74 74 75 76 73 74 75 75 75 74 74 75 74 74 74